Alexandria, LA

3:13 AM CDT on May 24, 2017 (GMT -0500)
Alexandria International

Weather History for KAEX - July, 2013

Change the Weather History Date:

Friday, July 12, 2013

  Actual Average Record
Temperature  
Mean Temperature 85 °F 82 °F  
Max Temperature 99 °F 92 °F 107 °F (1901)
Min Temperature 71 °F 73 °F 64 °F (1905)
Cooling Degree Days 20 17  
Month to date cooling degree days 194 204  
Year to date cooling degree days 1068 1111  
Since 1 June cooling degree days 675 657  
Growing Degree Days 35 (Base 50)    
Moisture  
Dew Point 70 °F    
Average Humidity 67    
Maximum Humidity 93    
Minimum Humidity 40    
Precipitation  
Precipitation 0.00 in 0.15 in 1.50 in (1919)
Month to date precipitation 0.25 1.87  
Year to date precipitation 29.70 30.97  
Sea Level Pressure  
Sea Level Pressure 29.92 in    
Wind  
Wind Speed 3 mph (NE)    
Max Wind Speed 13 mph    
Max Gust Speed 16 mph    
Visibility 10 miles    
Events      
T = Trace of Precipitation, MM = Missing Value Source: NWS Daily Summary

Daily Weather History Graph

Daily Weather History Graph

Search for Another Location

Airport or City:

Trip Planner

Search our weather history database for the weather conditions in past years. The results will help you decide how hot, cold, wet, or windy it might be!

Date:

Astronomy

Jul. 12, 2013 Rise Set
Actual Time 6:14 AM CDT 8:16 PM CDT
Civil Twilight 5:47 AM CDT 8:44 PM CDT
Nautical Twilight 5:13 AM CDT 9:17 PM CDT
Astronomical Twilight 4:38 AM CDT 9:53 PM CDT
Moon 10:12 AM CDT (7/12) 10:48 PM CDT (7/12)
Length of Visible Light 14h 56m
Length of Day
14h 01m
Waxing Crescent, 17% of the Moon is Illuminated
Jul 12
Waxing Crescent
Jul 15
First Quarter
Jul 22
Full
Jul 29
Last Quarter
Aug 6
New

Hourly Weather History & Observations

Time (CDT) Temp. Heat Index Dew Point Humidity Pressure Visibility Wind Dir Wind Speed Gust Speed Precip Events Conditions
12:53 AM 73.9 °F - 71.1 °F 91% 29.91 in 10.0 mi SSE 5.8 mph - N/A   Clear
1:53 AM 73.0 °F - 71.1 °F 93% 29.91 in 10.0 mi SSE 4.6 mph - N/A   Clear
2:53 AM 73.0 °F - 72.0 °F 96% 29.92 in 10.0 mi Calm Calm - N/A   Clear
3:53 AM 73.0 °F - 72.0 °F 96% 29.92 in 10.0 mi Calm Calm - N/A   Partly Cloudy
4:53 AM 73.0 °F - 71.1 °F 93% 29.94 in 10.0 mi SSE 3.5 mph - N/A   Clear
5:53 AM 73.0 °F - 72.0 °F 96% 29.94 in 10.0 mi Calm Calm - N/A   Overcast
6:53 AM 73.9 °F - 72.0 °F 93% 29.95 in 9.0 mi Calm Calm - N/A   Partly Cloudy
7:53 AM 77.0 °F - 73.0 °F 88% 29.96 in 10.0 mi Calm Calm - N/A   Clear
8:53 AM 81.0 °F 85.8 °F 73.0 °F 77% 29.97 in 10.0 mi Calm Calm - N/A   Clear
9:53 AM 86.0 °F 93.8 °F 73.9 °F 67% 29.96 in 10.0 mi Variable 3.5 mph - N/A   Clear
10:53 AM 90.0 °F 97.9 °F 73.0 °F 57% 29.95 in 10.0 mi Variable 5.8 mph - N/A   Clear
11:53 AM 91.9 °F 99.5 °F 72.0 °F 52% 29.94 in 10.0 mi NNW 4.6 mph - N/A   Clear
12:53 PM 93.9 °F 100.8 °F 71.1 °F 47% 29.92 in 10.0 mi Calm Calm - N/A   Partly Cloudy
1:53 PM 93.9 °F 99.1 °F 69.1 °F 44% 29.91 in 10.0 mi NE 3.5 mph - N/A   Mostly Cloudy
2:53 PM 97.0 °F 102.2 °F 68.0 °F 39% 29.90 in 10.0 mi Variable 3.5 mph 16.1 mph N/A   Partly Cloudy
3:53 PM 97.0 °F 102.8 °F 69.1 °F 40% 29.89 in 10.0 mi North 5.8 mph - N/A   Clear
4:53 PM 97.0 °F 102.8 °F 69.1 °F 40% 29.87 in 10.0 mi NE 6.9 mph - N/A   Scattered Clouds
5:53 PM 95.0 °F 100.7 °F 69.1 °F 43% 29.86 in 10.0 mi North 6.9 mph - N/A   Partly Cloudy
6:53 PM 93.0 °F 100.1 °F 71.1 °F 49% 29.86 in 10.0 mi North 6.9 mph - N/A   Clear
7:53 PM 89.1 °F 94.1 °F 70.0 °F 53% 29.88 in 10.0 mi NNE 5.8 mph - N/A   Clear
8:53 PM 84.9 °F 89.4 °F 70.0 °F 61% 29.90 in 10.0 mi NNE 4.6 mph - N/A   Clear
9:53 PM 82.9 °F 83.7 °F 62.1 °F 49% 29.91 in 10.0 mi ENE 5.8 mph - N/A   Clear
10:53 PM 80.1 °F 81.1 °F 61.0 °F 52% 29.92 in 10.0 mi NE 4.6 mph - N/A   Clear
11:53 PM 77.0 °F - 62.1 °F 60% 29.93 in 10.0 mi NNE 3.5 mph - N/A   Clear